Wind_Speed
4 4 5 6 7 8 9 10 11 12 14 16 17 17 19 19 19 20 21 21 21 21 22 23 24 26 26 26 27 27 27 27 29 28 28 28 28 28 28 27 27 26 26 25
4 4 4 6 8 10 11 12 12 12 13 16 17 17 19 20 19 19 19 20 20 20 21 22 22 24 25 27 27 27 27 27 27 28 28 28 28 27 26 26 25 25 25 25
5 6 7 8 9 9 11 13 13 13 13 15 17 17 17 18 18 18 18 19 20 20 21 22 23 25 25 26 27 27 25 26 26 27 26 27 26 25 24 24 25 25 25 24
4 6 8 9 9 10 11 13 14 15 14 15 16 17 17 19 19 19 19 20 21 21 22 24 25 25 27 27 26 25 24 24 25 26 25 25 24 24 24 25 26 26 25 25
6 7 9 9 10 11 12 13 14 14 15 16 17 18 19 19 20 20 20 20 21 22 23 25 25 25 26 26 25 24 24 23 24 24 24 24 23 23 24 24 25 24 24 24
8 9 10 11 12 13 14 15 16 16 16 15 16 17 18 18 20 20 20 21 21 21 23 23 24 25 25 26 26 26 25 24 23 23 23 22 21 22 22 22 23 23 23 23
9 9 11 12 14 14 15 15 16 16 15 15 15 17 17 17 18 19 19 20 21 22 23 22 23 24 24 24 24 25 24 24 23 23 22 21 21 21 21 21 22 22 22 22
10 10 11 12 14 15 14 16 16 17 16 15 15 17 17 17 18 18 18 20 21 21 22 24 24 23 22 22 23 23 24 24 23 22 22 22 21 21 22 21 21 22 22 23
11 11 11 12 13 14 15 15 16 16 15 16 16 16 17 17 18 19 19 20 21 22 23 23 22 22 22 23 23 23 24 24 23 23 23 23 21 21 21 22 22 22 22 22
14 13 12 12 13 13 14 16 17 17 17 18 18 18 19 18 18 19 19 19 20 22 23 23 23 23 23 23 24 24 24 23 23 23 24 23 21 22 22 21 20 20 21 21
14 13 13 13 14 14 14 15 17 18 19 19 20 20 20 19 20 20 21 21 20 21 21 22 23 25 25 24 24 24 24 23 22 22 23 21 21 20 20 19 19 19 20 20
15 14 14 13 13 14 15 16 17 19 19 19 21 22 21 20 21 22 22 22 23 22 22 23 23 23 24 24 25 24 23 22 22 22 21 20 20 19 19 18 19 20 20 20
15 15 15 13 13 14 15 16 18 20 20 20 21 22 21 21 21 22 23 23 24 23 23 23 23 23 24 24 23 23 22 21 20 20 19 19 19 18 18 19 19 20 20 19
15 14 14 14 14 15 15 16 18 19 19 20 20 21 20 21 21 21 22 23 23 24 23 23 23 23 22 23 22 21 20 19 18 18 17 17 17 18 18 18 19 19 19 18
15 14 14 14 15 16 16 17 18 19 19 19 19 20 20 21 21 21 21 22 23 23 24 23 22 21 20 20 19 17 16 15 16 15 15 15 16 17 16 17 18 18 18 18
15 14 14 15 16 16 16 16 17 17 18 18 18 19 20 21 22 22 22 22 22 22 21 21 21 20 19 18 16 15 13 13 13 13 14 14 14 14 15 16 16 16 17 17
15 15 14 15 16 16 15 17 17 16 18 19 19 20 20 21 21 21 21 21 21 20 20 19 19 18 17 15 14 12 11 11 12 12 13 13 13 13 14 15 16 16 16 17
16 16 17 17 17 16 17 17 17 18 19 19 19 20 21 21 21 21 21 20 20 19 18 17 16 16 14 12 12 11 11 12 11 11 12 12 13 13 14 15 15 15 16 16
17 17 18 18 19 18 18 17 18 18 18 18 19 20 21 21 20 20 19 18 18 17 17 15 14 14 12 11 11 10 10 10 10 11 12 12 13 14 14 14 15 16 16 17
18 18 19 19 19 19 19 18 19 19 18 17 18 19 20 20 19 18 17 17 17 16 15 13 13 12 12 11 10 10 10 10 10 11 11 12 12 13 14 15 16 16 16 17
19 19 20 20 20 20 20 20 20 19 18 18 18 19 19 18 17 17 16 17 16 14 13 13 12 12 11 10 10 10 9 10 10 11 11 11 12 13 13 14 15 16 16 17
20 21 21 21 22 21 21 20 20 19 18 18 19 19 18 16 16 15 15 15 15 13 13 12 11 11 10 10 10 10 9 10 11 10 11 12 12 13 13 15 16 16 17 18
21 21 22 22 22 22 21 21 20 18 17 18 18 17 17 16 15 14 14 14 13 13 12 11 10 9 9 10 9 9 10 10 11 11 11 12 12 13 14 15 16 16 17 18
21 22 22 22 22 22 22 21 20 19 18 17 17 16 16 15 14 14 13 13 12 12 12 11 10 9 9 9 9 10 10 10 11 11 12 12 13 14 15 15 16 16 17 18
21 23 22 22 22 22 21 21 21 20 19 18 17 16 15 14 13 12 12 12 11 11 11 11 9 9 9 9 9 10 10 10 11 11 12 12 13 14 15 15 16 17 18 19
22 23 22 22 21 22 21 21 21 19 18 18 16 15 14 13 12 11 12 11 11 11 11 10 9 8 9 9 9 10 10 11 11 11 12 13 14 15 15 16 17 18 19 20
Wind_Direction
252 254 253 255 257 256 262 268 270 272 271 271 272 276 280 283 288 291 291 291 296 301 303 305 304 304 304 302 300 296 295 294 296 292 292 289 287 288 290 292 293 292 293 292
304 298 281 278 277 270 274 276 276 277 275 276 277 278 280 283 287 287 286 288 293 299 304 305 304 304 304 303 301 299 296 294 294 294 294 292 291 289 288 290 291 292 293 293
321 310 301 291 289 285 281 278 279 284 282 276 277 278 278 283 285 284 286 289 294 297 300 304 307 308 306 305 302 301 300 299 297 299 299 296 293 294 292 291 292 291 292 292
327 312 305 300 296 289 287 284 283 286 287 283 283 282 279 282 283 285 289 293 295 297 300 304 305 305 306 305 305 305 304 301 300 303 302 299 297 297 296 294 291 290 290 292
328 310 308 307 306 298 292 287 287 286 288 285 282 284 287 287 288 290 290 293 296 296 297 302 302 302 304 306 308 309 309 306 305 304 304 304 300 298 297 295 295 291 291 293
325 315 306 305 307 304 301 297 293 290 290 286 287 289 293 292 295 295 295 296 298 296 296 297 301 302 304 306 308 310 309 310 310 306 306 305 302 301 298 296 297 296 295 295
326 318 309 307 306 304 303 302 302 298 295 291 293 295 300 301 305 303 301 301 301 300 302 301 301 303 304 306 308 310 309 310 311 308 307 307 303 301 301 301 302 303 301 300
328 326 316 312 311 312 310 308 309 311 309 304 299 300 303 306 307 306 306 304 301 299 300 302 302 302 303 304 307 307 306 307 307 306 305 306 304 305 304 304 304 303 303 303
327 326 323 322 321 322 318 316 319 318 316 312 307 305 308 309 304 305 306 305 302 302 303 305 304 302 302 305 306 304 304 305 304 303 304 304 304 306 306 306 306 304 304 305
327 325 324 325 322 320 319 321 320 319 319 317 318 315 315 312 312 308 304 302 303 306 305 306 303 304 305 306 305 303 302 303 302 302 303 303 302 305 307 308 309 310 309 308
322 321 322 320 319 319 320 321 319 320 322 321 319 322 321 314 314 309 308 307 308 311 308 307 306 304 304 305 304 303 301 300 301 302 304 304 305 308 309 309 310 312 312 312
322 320 320 319 315 315 316 318 319 319 320 319 319 321 324 320 316 313 311 310 310 309 310 309 308 307 306 306 305 303 300 300 300 301 303 305 305 308 311 311 311 312 313 313
323 322 319 318 316 313 313 316 318 318 319 318 322 322 321 320 319 317 315 313 312 311 309 308 309 309 308 306 306 306 304 303 302 303 302 304 304 308 311 311 311 312 314 314
324 323 321 320 317 314 313 316 318 318 319 320 322 322 320 319 318 318 317 317 315 313 311 308 309 312 312 311 310 308 305 302 303 305 305 306 307 310 312 312 313 314 316 317
321 321 321 320 316 314 316 317 320 322 322 322 323 324 324 322 322 322 323 323 322 317 314 312 311 313 314 316 315 312 309 303 305 308 309 311 313 314 316 316 318 318 320 321
318 317 317 316 313 313 317 318 321 326 325 325 325 325 326 326 326 322 323 325 324 321 320 318 314 315 316 319 320 318 313 307 309 312 313 318 320 319 321 322 323 325 326 329
319 316 317 318 315 318 321 322 325 325 323 323 323 324 325 325 325 324 325 326 326 326 323 322 320 321 320 320 320 326 322 316 316 318 324 324 324 324 326 327 326 328 331 331
319 319 321 321 318 320 322 322 322 322 320 320 321 323 325 327 326 324 323 326 329 329 328 327 326 327 329 330 328 327 331 330 330 334 335 333 331 331 331 331 334 335 337 338
320 322 323 322 318 318 320 322 321 318 319 319 321 324 325 329 328 326 324 326 328 328 330 331 331 333 335 336 336 336 334 334 338 338 338 339 339 338 336 338 339 340 340 340
316 318 319 320 317 316 320 318 316 315 318 320 322 322 324 328 327 328 325 327 329 328 331 335 334 335 336 338 339 339 339 342 342 339 341 343 344 346 345 345 345 343 341 340
312 314 315 315 314 313 318 317 316 313 315 315 321 324 325 328 329 331 330 331 333 331 331 335 335 336 338 341 344 344 341 340 339 341 343 344 345 346 346 344 343 341 340 340
311 312 313 313 312 313 315 315 316 314 312 312 316 320 323 324 327 330 332 334 334 334 333 334 335 339 341 343 345 346 342 340 340 342 344 345 346 347 347 345 342 341 340 341
310 309 309 309 310 311 311 312 313 313 312 310 312 313 316 317 320 325 328 330 333 335 333 334 338 340 342 346 344 343 343 343 344 345 346 346 345 345 345 344 343 343 343 342
307 306 305 306 308 308 306 308 311 312 311 308 307 307 310 312 315 319 323 327 330 334 333 335 339 341 342 341 339 339 342 345 348 348 347 346 345 344 343 343 343 344 344 342
305 303 303 305 306 305 303 304 305 303 303 304 305 305 305 308 309 311 320 328 331 331 331 332 333 336 337 337 335 338 344 347 349 348 345 344 344 343 344 346 346 345 344 344
301 301 301 303 303 302 301 299 302 303 302 301 301 301 302 304 306 308 314 320 324 327 329 328 329 333 336 336 335 339 342 346 346 345 343 343 343 344 346 346 345 345 345 344
Height
5867 5867 5866 5866 5865 5865 5864 5864 5863 5863 5862 5861 5861 5860 5858 5857 5855 5854 5852 5850 5848 5847 5846 5844 5841 5839 5837 5834 5831 5828 5826 5823 5820 5817 5813 5811 5809 5807 5805 5803 5801 5799 5797 5795
5866 5865 5864 5863 5862 5862 5861 5860 5860 5859 5859 5857 5856 5855 5854 5852 5851 5849 5847 5846 5845 5843 5841 5839 5837 5834 5831 5828 5825 5822 5820 5817 5814 5811 5808 5806 5803 5800 5799 5797 5795 5793 5791 5788
5864 5864 5862 5861 5860 5860 5859 5857 5856 5856 5855 5853 5852 5851 5850 5848 5846 5845 5843 5842 5840 5838 5836 5834 5832 5829 5826 5823 5820 5816 5813 5810 5807 5804 5802 5799 5797 5794 5792 5790 5788 5786 5784 5782
5862 5861 5860 5859 5858 5857 5856 5854 5853 5852 5851 5849 5848 5846 5845 5843 5842 5840 5839 5837 5835 5833 5831 5829 5826 5824 5820 5817 5813 5809 5806 5804 5801 5798 5796 5793 5791 5789 5786 5784 5782 5780 5777 5775
5860 5859 5857 5856 5855 5853 5852 5850 5849 5848 5847 5845 5843 5841 5841 5838 5837 5836 5834 5833 5831 5829 5827 5824 5821 5818 5815 5811 5807 5804 5802 5799 5796 5793 5790 5787 5785 5783 5780 5778 5776 5773 5771 5769
5858 5856 5854 5853 5852 5850 5848 5847 5846 5845 5843 5841 5839 5838 5836 5834 5833 5831 5829 5828 5825 5823 5821 5818 5815 5812 5809 5806 5803 5799 5797 5794 5791 5788 5785 5782 5780 5777 5775 5773 5770 5768 5765 5762
5857 5854 5852 5850 5849 5848 5846 5844 5843 5841 5839 5837 5836 5833 5832 5829 5828 5826 5824 5822 5820 5818 5815 5813 5810 5807 5804 5801 5798 5794 5791 5788 5785 5783 5780 5777 5775 5772 5769 5767 5765 5762 5759 5756
5854 5853 5850 5848 5845 5843 5842 5841 5839 5837 5835 5833 5832 5829 5828 5825 5823 5821 5819 5817 5815 5813 5810 5808 5805 5802 5799 5796 5792 5790 5787 5783 5781 5777 5775 5772 5769 5767 5764 5762 5759 5757 5754 5750
5852 5850 5848 5845 5842 5840 5839 5837 5836 5833 5831 5829 5828 5826 5823 5821 5819 5817 5815 5813 5810 5808 5805 5802 5799 5796 5793 5790 5787 5784 5781 5778 5775 5772 5769 5767 5764 5761 5759 5756 5754 5751 5748 5745
5849 5847 5845 5843 5841 5838 5836 5834 5833 5830 5828 5825 5824 5822 5820 5816 5815 5812 5810 5808 5806 5803 5800 5797 5793 5790 5787 5783 5781 5778 5775 5772 5770 5767 5764 5761 5759 5756 5754 5751 5749 5746 5742 5739
5846 5845 5843 5840 5837 5835 5833 5831 5829 5827 5825 5823 5820 5820 5816 5812 5810 5807 5805 5802 5799 5796 5793 5790 5787 5784 5781 5778 5775 5772 5769 5766 5763 5761 5759 5756 5754 5751 5748 5746 5744 5741 5737 5734
5843 5841 5840 5838 5835 5832 5831 5829 5827 5825 5822 5819 5816 5817 5811 5807 5804 5802 5799 5796 5793 5790 5787 5784 5781 5778 5774 5771 5769 5766 5763 5760 5758 5756 5754 5751 5749 5746 5744 5741 5739 5736 5732 5729
5840 5838 5837 5835 5835 5832 5829 5826 5823 5821 5818 5815 5813 5813 5807 5803 5800 5797 5794 5790 5788 5784 5781 5779 5776 5772 5769 5765 5763 5760 5757 5754 5752 5751 5749 5747 5744 5742 5739 5736 5733 5730 5727 5724
5837 5835 5834 5832 5829 5827 5825 5823 5821 5818 5815 5812 5809 5806 5802 5799 5796 5793 5789 5785 5781 5778 5775 5772 5769 5766 5763 5759 5757 5754 5752 5750 5748 5746 5744 5742 5740 5738 5735 5732 5729 5726 5722 5719
5834 5833 5831 5829 5826 5824 5822 5820 5817 5815 5811 5808 5806 5802 5798 5795 5792 5788 5784 5780 5776 5773 5770 5767 5764 5760 5757 5755 5752 5749 5748 5746 5744 5742 5740 5738 5736 5734 5731 5728 5725 5722 5718 5715
5831 5830 5828 5826 5824 5821 5819 5817 5814 5811 5808 5805 5802 5799 5795 5792 5788 5784 5780 5776 5772 5768 5765 5762 5759 5756 5753 5751 5748 5746 5744 5743 5741 5739 5737 5735 5733 5730 5728 5725 5722 5718 5715 5712
5828 5826 5825 5823 5820 5818 5816 5813 5810 5807 5804 5802 5798 5796 5792 5788 5784 5780 5775 5772 5768 5764 5761 5758 5755 5752 5750 5747 5745 5743 5742 5740 5738 5736 5734 5732 5730 5728 5725 5722 5718 5715 5712 5709
5825 5823 5821 5819 5817 5815 5814 5809 5806 5803 5800 5797 5794 5791 5787 5784 5780 5776 5772 5768 5765 5761 5758 5755 5752 5749 5747 5745 5743 5741 5740 5737 5735 5734 5732 5730 5727 5725 5722 5719 5715 5713 5710 5706
5821 5819 5816 5814 5812 5810 5808 5805 5802 5799 5796 5793 5790 5787 5784 5780 5777 5773 5769 5766 5762 5759 5755 5752 5750 5748 5745 5743 5741 5740 5738 5736 5734 5732 5730 5728 5725 5722 5720 5716 5713 5711 5707 5704
5817 5815 5813 5810 5807 5805 5804 5801 5797 5795 5792 5789 5786 5783 5780 5777 5774 5771 5767 5763 5760 5757 5753 5750 5748 5747 5744 5742 5740 5738 5736 5734 5733 5731 5729 5726 5724 5721 5718 5715 5712 5709 5705 5702
5813 5811 5808 5806 5803 5800 5798 5795 5793 5791 5789 5785 5782 5779 5776 5773 5771 5768 5764 5761 5758 5754 5752 5749 5747 5745 5743 5741 5739 5737 5736 5734 5732 5729 5727 5725 5722 5720 5717 5714 5710 5707 5703 5699
5808 5805 5803 5800 5798 5797 5793 5790 5788 5786 5783 5780 5778 5776 5773 5771 5768 5765 5762 5759 5756 5753 5751 5748 5746 5744 5742 5740 5738 5736 5735 5733 5731 5728 5726 5724 5721 5719 5715 5712 5709 5705 5701 5697
5803 5801 5798 5796 5794 5791 5787 5785 5783 5780 5778 5776 5774 5772 5770 5768 5765 5763 5760 5757 5755 5752 5750 5748 5745 5743 5741 5739 5738 5736 5734 5732 5729 5727 5725 5722 5720 5717 5714 5710 5707 5703 5699 5695
5798 5795 5792 5790 5788 5785 5782 5780 5778 5775 5773 5772 5770 5768 5766 5764 5762 5760 5758 5756 5753 5751 5748 5746 5745 5743 5741 5739 5737 5735 5733 5730 5728 5726 5724 5721 5718 5715 5712 5709 5705 5701 5697 5693
5793 5790 5787 5785 5783 5780 5778 5775 5773 5771 5769 5767 5766 5764 5762 5761 5759 5757 5755 5754 5751 5749 5747 5745 5743 5741 5740 5738 5736 5734 5731 5729 5727 5725 5722 5720 5717 5714 5710 5707 5703 5699 5695 5690
5787 5784 5782 5780 5778 5775 5773 5770 5768 5766 5764 5763 5761 5760 5758 5757 5755 5754 5753 5751 5749 5748 5746 5744 5742 5740 5739 5737 5735 5732 5730 5728 5726 5723 5721 5718 5715 5712 5708 5704 5701 5697 5693 5688